Location: Ku?niki
(51.4449°N, 17.8974°E)
Time: 03:34:12
(UTC+00:00)

NOSS 2-2 (E) - Pass Details

Date: 18 September 2020
Orbit: 469 x 1737 km, 63.3° (Epoch: 19 October)

Event Time Altitude Azimuth Distance (km) Brightness Sun altitude
Rises 17:24:10 0° 184° (S) 2,499 6.6 -5.3°
Reaches altitude 10° 17:26:36 10° 166° (SSE) 1,634 5.5 -5.7°
Maximum altitude 17:29:14 20° 117° (ESE) 1,196 4.5 -6.1°
Drops below altitude 10° 17:32:05 10° 69° (ENE) 1,791 5.4 -6.5°
Sets 17:34:54 0° 52° (NE) 2,833 6.6 -7.0°
